Wind_Speed
25 26 27 27 25 26 25 24 24 26 27 26 24 21 20 20 20 20 20 21 21 21 21 21 21 21 21 21 21 21 22 22 23 24 25 26 25 25
22 23 23 23 25 25 25 24 25 26 27 27 26 23 21 21 21 20 19 20 20 21 21 21 21 21 21 20 20 21 21 21 22 23 23 24 24 25
22 21 22 21 21 22 24 25 25 26 28 29 28 27 25 24 23 22 21 20 21 21 21 21 21 21 21 21 20 20 21 21 21 22 22 23 23 24
22 21 21 21 21 21 22 23 24 25 26 29 30 29 28 27 26 24 23 22 22 22 21 21 21 22 21 21 22 22 22 22 22 22 23 23 23 23
22 22 21 21 21 21 21 22 22 22 25 27 29 31 31 31 30 29 27 26 25 24 23 23 23 23 23 23 23 23 24 24 24 24 24 24 24 24
22 23 23 22 22 21 22 22 22 22 24 25 28 30 33 33 33 32 31 31 29 27 26 26 25 25 25 25 25 25 26 26 25 25 25 25 25 25
22 22 23 23 23 23 22 22 22 23 22 23 24 27 30 34 35 35 35 34 33 32 31 30 28 27 27 27 28 28 28 28 28 28 27 27 27 27
23 23 23 23 23 24 23 23 22 23 22 23 24 25 27 30 34 36 37 36 35 36 35 34 32 31 31 31 31 31 30 30 30 30 30 30 30 30
23 23 24 24 24 23 23 23 23 23 23 24 25 25 27 29 30 33 36 37 38 38 37 37 36 35 36 35 33 33 33 33 32 33 33 32 32 32
22 22 23 23 23 23 23 23 23 23 23 23 24 24 25 28 29 30 33 36 38 39 40 39 38 38 37 36 35 35 35 35 35 35 35 35 35 35
22 22 22 22 22 22 23 23 23 23 23 23 23 24 25 26 27 28 30 31 33 36 38 38 39 40 39 38 37 36 37 37 37 37 37 36 36 36
20 21 22 22 21 22 22 23 23 23 23 24 24 24 24 24 25 26 28 30 31 34 36 37 39 40 39 39 39 38 38 38 38 38 38 38 37 37
20 21 21 22 22 22 22 22 22 23 23 24 25 25 25 25 25 25 26 28 29 31 33 34 35 37 38 38 39 39 39 39 40 39 39 39 39 38
21 21 21 22 22 22 22 22 22 22 23 23 24 24 25 26 26 26 27 28 28 29 29 31 32 33 35 36 37 38 39 40 40 40 41 41 40 40
20 21 21 22 22 22 22 22 22 22 22 22 23 24 25 26 26 27 28 28 29 30 30 31 32 33 34 35 36 37 38 39 40 41 42 43 43 43
19 19 20 21 21 21 21 21 21 21 21 22 23 24 25 26 27 28 28 29 29 30 31 32 32 33 34 35 36 37 38 39 40 42 42 43 44 44
15 17 18 18 19 19 19 19 19 20 20 21 22 23 24 25 26 27 28 29 29 30 31 31 32 33 34 35 36 37 38 38 39 40 42 42 43 44
9 11 12 13 14 14 15 16 16 17 18 19 20 21 22 23 24 25 26 27 29 30 31 32 32 33 34 35 36 37 38 38 39 39 40 41 42 43
5 4 4 5 6 8 9 10 11 13 15 16 18 19 21 22 23 24 25 26 28 29 31 33 34 35 35 36 37 38 38 39 40 40 41 41 42 42
7 5 4 2 1 2 3 5 7 9 11 13 15 16 18 19 21 23 24 26 28 30 31 33 34 35 36 37 38 39 41 41 41 42 43 43 43 43
11 10 8 7 5 4 3 4 6 8 9 11 12 14 16 18 20 22 24 26 28 29 31 33 34 36 37 38 39 40 42 42 43 43 44 44 44 44
15 14 13 12 10 9 8 7 7 8 9 10 11 13 14 17 19 21 23 25 26 28 30 32 34 35 36 38 39 40 41 42 43 44 44 44 44 44
18 17 16 15 14 13 12 12 11 11 11 12 13 14 15 16 18 20 22 23 25 26 28 30 32 33 34 36 37 38 39 40 41 42 42 43 44 44
Wind_Direction
269 267 267 265 259 250 247 247 247 244 240 240 240 240 239 239 237 235 234 234 235 236 238 239 240 241 242 242 242 241 241 241 241 241 242 243 245 247
270 267 267 265 257 251 247 246 246 244 238 238 240 240 239 240 239 237 236 235 235 236 237 239 240 241 241 241 240 240 240 241 242 243 245 246 247 249
270 268 265 264 262 256 250 246 247 244 238 236 239 240 238 239 239 239 239 239 238 238 239 240 242 242 241 241 241 241 242 243 245 246 248 249 250 250
268 267 266 265 262 261 257 252 249 246 239 237 239 239 238 240 241 240 242 242 242 242 242 244 244 244 243 243 243 244 246 247 249 250 251 251 252 252
266 264 265 266 261 258 260 259 254 248 242 241 239 239 238 239 241 242 243 244 245 245 246 247 248 247 247 248 248 248 249 250 251 252 253 253 253 253
266 264 263 262 262 261 260 259 255 253 249 248 244 241 239 240 242 242 244 246 246 247 248 249 250 250 251 251 251 252 252 252 252 253 254 254 254 255
267 264 263 261 261 260 260 259 257 255 256 255 252 247 244 243 243 243 244 246 247 247 248 249 250 252 253 252 252 252 253 253 254 254 255 256 256 257
267 265 263 261 260 259 259 259 258 256 257 256 253 251 248 245 243 244 245 247 248 249 250 252 252 253 253 253 254 254 254 255 255 256 257 258 258 259
266 264 263 262 260 259 258 258 257 257 257 256 254 252 248 246 247 248 248 249 251 252 252 253 253 254 254 255 256 256 256 256 257 257 258 260 261 262
265 264 262 261 259 258 256 256 255 255 255 255 254 253 250 248 247 249 249 249 250 252 253 253 254 255 256 256 257 257 258 258 258 259 260 261 262 263
265 264 262 260 259 257 256 255 255 255 255 255 255 254 252 252 251 250 250 252 251 251 253 254 254 256 257 257 257 257 257 258 259 259 260 261 262 263
266 265 263 261 259 258 257 255 255 256 256 256 256 255 255 254 255 254 253 254 254 253 254 255 255 256 257 258 258 258 258 259 260 261 261 261 262 263
267 266 263 262 260 259 258 258 256 255 255 256 256 256 256 255 256 256 257 256 256 256 256 256 256 257 257 258 260 260 259 260 261 261 261 261 262 263
265 265 263 262 261 260 258 258 258 257 256 256 256 256 257 257 258 259 259 258 258 258 258 258 259 258 258 259 260 261 261 261 261 261 261 262 263 263
264 263 262 262 261 259 257 258 259 259 258 257 258 257 258 258 259 260 261 261 261 262 261 261 261 261 262 262 263 263 264 263 263 262 262 263 264 264
266 265 262 260 259 257 256 257 259 260 259 259 260 260 259 260 261 262 262 263 264 264 265 265 265 265 265 265 265 265 265 265 265 265 265 264 265 265
268 265 262 256 256 256 257 258 259 261 262 262 263 264 263 263 263 264 265 266 266 267 267 267 267 267 268 268 268 268 268 268 267 266 265 265 265 265
284 270 262 256 257 256 256 257 259 263 266 266 266 266 266 266 267 269 269 269 269 269 269 269 269 269 269 269 270 270 270 269 269 269 269 269 268 268
336 305 267 254 253 252 251 256 262 269 273 272 270 270 271 271 272 273 273 273 273 273 273 272 272 272 272 272 271 271 271 270 270 270 270 269 269 269
44 50 56 48 342 277 263 271 280 286 287 284 281 281 281 280 280 280 279 279 279 278 277 277 276 275 274 274 273 273 272 271 271 271 271 271 270 270
55 57 57 56 51 37 12 334 319 313 309 304 299 295 293 292 291 290 289 287 286 284 283 282 281 279 278 277 275 274 274 273 272 272 271 271 270 270
57 58 57 55 51 44 36 24 9 353 339 329 322 316 312 308 305 302 299 297 294 291 289 287 286 284 282 280 279 277 275 274 273 273 272 271 270 269
56 55 53 51 48 43 37 31 23 14 4 355 346 338 332 325 321 316 312 307 303 300 297 294 291 289 287 285 283 281 279 277 275 274 273 272 271 270
Height
5806 5806 5806 5806 5807 5809 5811 5813 5815 5817 5820 5822 5824 5826 5828 5830 5832 5834 5835 5838 5840 5842 5845 5847 5849 5851 5853 5855 5856 5858 5859 5861 5863 5865 5867 5869 5870 5872
5800 5800 5800 5801 5801 5803 5804 5807 5809 5811 5813 5816 5819 5821 5824 5826 5828 5830 5831 5833 5835 5838 5840 5842 5844 5846 5848 5850 5851 5853 5855 5857 5858 5860 5862 5863 5865 5866
5795 5795 5795 5795 5796 5797 5798 5800 5802 5804 5807 5810 5813 5816 5819 5821 5823 5825 5827 5829 5831 5833 5835 5837 5839 5841 5843 5845 5847 5849 5850 5852 5853 5855 5856 5857 5859 5860
5789 5789 5790 5790 5791 5792 5793 5794 5796 5798 5800 5803 5806 5809 5813 5815 5818 5821 5823 5824 5826 5828 5831 5833 5835 5836 5838 5840 5842 5843 5845 5846 5848 5849 5850 5851 5853 5854
5784 5784 5785 5785 5786 5787 5788 5789 5790 5792 5794 5796 5799 5802 5805 5809 5812 5815 5817 5819 5821 5823 5825 5827 5829 5831 5833 5835 5836 5838 5839 5841 5842 5843 5844 5845 5846 5848
5777 5778 5779 5780 5781 5782 5783 5784 5785 5786 5788 5789 5792 5794 5798 5801 5804 5807 5810 5812 5815 5817 5819 5821 5823 5825 5827 5829 5830 5831 5833 5834 5835 5837 5838 5839 5840 5841
5771 5772 5773 5774 5775 5776 5777 5778 5779 5781 5782 5783 5784 5787 5790 5793 5796 5799 5802 5804 5808 5810 5812 5814 5816 5819 5820 5821 5823 5824 5826 5827 5828 5830 5831 5832 5833 5834
5765 5765 5766 5768 5769 5770 5771 5772 5774 5775 5776 5777 5778 5780 5782 5785 5787 5790 5793 5797 5800 5802 5804 5807 5809 5811 5812 5814 5815 5816 5818 5819 5821 5822 5823 5824 5825 5826
5758 5759 5760 5761 5762 5763 5764 5766 5767 5768 5770 5771 5772 5773 5775 5777 5780 5783 5785 5787 5790 5792 5795 5798 5800 5802 5803 5805 5807 5809 5810 5811 5812 5813 5814 5815 5816 5817
5751 5752 5753 5754 5755 5757 5758 5759 5760 5762 5763 5765 5766 5767 5769 5770 5772 5774 5776 5779 5781 5783 5785 5788 5790 5792 5794 5796 5798 5800 5801 5802 5803 5804 5805 5806 5807 5808
5745 5746 5747 5748 5749 5750 5752 5753 5754 5756 5757 5758 5760 5761 5762 5764 5765 5767 5768 5771 5772 5774 5775 5778 5780 5781 5784 5786 5788 5790 5791 5792 5792 5794 5795 5796 5796 5797
5739 5739 5740 5741 5742 5743 5745 5746 5748 5749 5751 5752 5753 5754 5756 5757 5758 5759 5761 5762 5764 5765 5766 5769 5770 5771 5774 5775 5777 5778 5780 5781 5782 5783 5784 5785 5786 5786
5733 5733 5734 5735 5736 5737 5738 5740 5741 5743 5744 5745 5747 5748 5749 5750 5752 5753 5754 5755 5756 5757 5758 5759 5760 5761 5763 5765 5765 5767 5769 5770 5771 5772 5773 5773 5774 5775
5726 5727 5727 5728 5729 5731 5732 5733 5735 5736 5738 5739 5740 5741 5742 5743 5744 5745 5746 5747 5748 5748 5749 5750 5751 5752 5753 5754 5755 5756 5757 5758 5759 5761 5761 5762 5763 5763
5719 5720 5721 5722 5723 5724 5725 5727 5728 5730 5731 5732 5734 5735 5736 5737 5737 5738 5739 5739 5740 5740 5741 5741 5742 5743 5743 5744 5744 5745 5745 5746 5747 5748 5749 5749 5750 5751
5713 5713 5714 5715 5716 5718 5719 5721 5722 5724 5725 5726 5727 5728 5729 5730 5730 5731 5731 5731 5732 5732 5732 5733 5733 5733 5733 5734 5734 5734 5734 5734 5734 5735 5736 5736 5737 5737
5706 5707 5707 5709 5710 5712 5714 5715 5717 5718 5719 5720 5721 5721 5722 5723 5723 5723 5723 5724 5724 5724 5723 5723 5723 5723 5723 5723 5723 5722 5722 5722 5722 5722 5723 5723 5723 5723
5702 5702 5702 5704 5705 5707 5709 5710 5712 5713 5714 5714 5715 5715 5716 5716 5716 5716 5716 5716 5715 5715 5714 5714 5713 5713 5713 5712 5712 5711 5711 5710 5710 5710 5710 5710 5709 5709
5700 5700 5700 5701 5703 5704 5705 5707 5708 5709 5709 5709 5709 5710 5710 5710 5709 5709 5708 5708 5707 5706 5705 5704 5703 5702 5702 5701 5700 5699 5699 5698 5698 5697 5697 5697 5697 5696
5701 5701 5701 5701 5702 5703 5704 5705 5706 5706 5706 5705 5705 5705 5704 5704 5703 5702 5701 5700 5698 5697 5695 5694 5692 5691 5690 5689 5688 5687 5685 5685 5684 5684 5683 5683 5683 5683
5704 5704 5703 5703 5703 5704 5704 5704 5704 5704 5703 5702 5701 5700 5699 5698 5697 5695 5693 5691 5689 5687 5685 5683 5681 5679 5678 5676 5675 5673 5672 5671 5670 5669 5669 5669 5669 5669
5708 5708 5707 5706 5706 5705 5705 5704 5704 5703 5701 5700 5699 5697 5695 5694 5691 5689 5686 5684 5681 5678 5675 5673 5670 5667 5665 5663 5661 5659 5658 5656 5655 5654 5654 5654 5653 5653
5713 5712 5711 5709 5708 5707 5706 5705 5704 5702 5701 5699 5697 5695 5692 5690 5687 5684 5680 5677 5673 5670 5666 5662 5659 5656 5653 5650 5647 5645 5643 5642 5640 5639 5639 5638 5638 5638